SCP
0 0 0 0 0 0 0 0 0 0 0 0 0 0 0 0 0 0 0 0 0 0 0 1 1 1 1 1 1 1 1 0 0 0 0 0 0 0 0 0 0 0 0 0 0 0 0 0 0
0 0 0 0 0 0 0 0 0 0 0 0 0 0 0 0 0 0 0 0 0 0 0 1 1 1 1 1 1 1 1 1 0 0 0 0 0 0 0 0 0 0 0 0 0 0 0 0 0
0 0 0 0 0 0 0 0 0 0 0 0 0 0 0 0 0 0 0 0 0 0 0 0 1 1 1 1 1 1 1 1 1 1 0 0 0 0 0 0 0 0 0 0 0 0 0 0 0
0 0 0 0 0 0 0 0 0 0 0 0 0 0 0 0 0 0 0 0 0 0 0 0 1 1 1 1 1 1 1 1 1 1 0 0 0 0 0 0 0 0 0 0 0 0 0 0 0
0 0 0 0 0 0 0 0 0 0 0 0 0 0 0 0 0 0 0 0 0 0 0 0 0 1 1 1 1 1 1 1 1 1 1 0 0 0 0 0 0 0 0 0 0 0 0 0 0
0 0 0 0 0 0 0 0 0 0 0 0 0 0 0 0 0 0 0 0 0 0 0 0 0 1 1 1 1 1 1 1 1 1 1 1 0 0 0 0 0 0 0 0 0 0 0 0 0
0 0 0 0 0 0 0 0 0 0 0 0 0 0 0 0 0 0 0 0 0 0 0 0 0 0 1 1 1 1 1 1 1 1 1 1 0 1 0 0 0 0 0 0 0 0 0 0 0
0 0 0 0 0 0 0 0 0 0 0 0 0 0 0 0 0 0 0 0 0 0 0 0 0 0 0 0 1 1 1 1 1 1 0 0 0 0 0 0 0 0 0 0 0 0 0 0 0
0 0 0 0 0 0 0 0 0 0 0 0 0 0 0 0 0 0 0 0 0 0 0 0 0 0 0 0 0 0 0 0 0 0 0 0 0 0 0 0 0 0 0 0 0 0 0 0 0
0 0 0 0 0 0 0 0 0 0 0 0 0 0 0 0 0 0 0 0 0 0 0 0 0 0 0 0 0 0 0 0 0 0 0 0 0 0 0 0 0 0 0 0 0 0 0 0 0
0 0 0 0 0 0 0 0 0 0 0 0 0 0 0 0 0 0 0 0 0 0 0 0 0 0 0 0 0 0 0 0 0 0 0 0 0 0 0 0 0 0 0 0 0 0 0 0 0
0 0 0 0 0 0 0 0 0 0 0 0 0 0 0 0 0 0 0 0 0 0 0 0 0 0 0 0 0 0 0 0 0 0 0 0 0 0 0 0 0 0 0 0 0 0 0 0 0
0 0 0 0 0 0 0 0 0 0 0 0 0 0 0 0 0 0 0 0 0 0 0 0 0 0 0 0 0 0 0 0 0 0 0 0 0 0 0 0 0 0 0 0 0 0 0 0 0
0 0 0 0 0 0 0 0 0 0 0 0 0 0 0 0 0 0 0 0 0 0 0 0 0 0 0 0 0 0 0 0 0 0 0 0 0 0 0 0 0 0 0 0 0 0 0 0 0
0 0 0 0 0 0 0 0 0 0 0 0 0 0 0 0 0 0 0 0 0 0 0 0 0 0 0 0 0 0 0 0 0 0 0 0 0 0 0 0 0 0 0 0 0 0 0 0 0
0 0 0 0 0 0 0 0 0 0 0 0 0 0 0 0 0 0 0 0 0 0 0 0 0 0 0 0 0 0 0 0 0 0 0 0 0 0 0 0 0 0 0 0 0 0 0 0 0
0 0 0 0 0 0 0 0 0 0 0 0 0 0 0 0 0 0 0 0 0 0 0 0 0 0 0 0 0 0 0 0 0 0 0 0 0 0 0 0 0 0 0 0 0 0 0 0 0
0 0 0 0 0 0 0 0 0 0 0 0 0 0 0 0 0 0 0 0 0 0 0 0 0 0 0 0 0 0 0 0 0 0 0 0 0 0 0 0 0 0 0 0 0 0 0 0 0
0 0 0 0 0 0 0 0 0 0 0 0 0 0 0 0 0 0 0 0 0 0 0 0 0 0 0 0 0 0 0 0 0 0 0 0 0 0 0 0 0 0 0 0 0 0 0 0 0
0 0 0 0 0 0 0 0 0 0 0 0 0 0 0 0 0 0 0 0 0 0 0 0 0 0 0 0 0 0 0 0 0 0 0 0 0 0 0 0 0 0 0 0 0 0 0 0 0
0 0 0 0 0 0 0 0 0 0 0 0 0 0 0 0 -0 -0 -0 0 0 0 0 0 0 0 0 0 0 0 0 0 0 0 0 0 0 0 0 0 0 0 0 0 0 0 0 0 0
0 0 0 0 0 0 0 0 0 0 0 0 0 0 0 -0 -0 -0 -0 0 0 0 0 0 0 0 0 0 0 0 0 0 0 0 0 0 0 0 0 0 0 0 0 0 0 0 0 0 0
0 0 0 0 0 0 0 0 0 0 0 0 0 0 0 0 -0 -0 0 0 0 0 0 0 0 0 0 0 0 0 0 0 0 0 0 0 0 0 0 0 0 0 0 0 0 0 0 0 0
0 0 0 0 0 0 0 0 0 0 0 0 0 0 0 0 0 0 0 0 0 0 0 0 0 0 0 0 0 0 0 0 0 0 0 0 0 0 0 0 0 0 0 0 0 0 0 0 0
0 0 0 0 0 0 0 0 0 0 0 0 0 0 0 0 0 0 0 0 0 0 0 0 0 0 0 0 0 0 0 0 0 0 0 0 0 0 0 0 0 0 0 0 0 0 0 0 0
0 0 0 0 0 0 0 0 0 0 0 0 0 0 0 0 0 0 0 0 0 0 0 0 0 0 0 0 0 0 0 0 0 0 0 0 0 0 0 0 0 0 0 0 0 0 0 0 0
0 0 0 0 0 0 0 0 0 0 0 0 0 0 0 0 0 0 0 0 0 0 0 0 0 0 0 0 0 0 0 0 0 0 0 0 0 0 0 0 0 0 0 0 0 0 0 0 0
0 0 0 0 0 0 0 0 0 0 0 0 0 0 0 0 0 0 0 0 0 0 0 0 0 0 0 0 0 0 0 0 0 0 0 0 0 0 0 0 0 0 0 0 0 0 0 0 0
0 0 0 0 0 0 0 0 0 -0 -0 -0 0 0 0 0 0 0 0 0 0 0 0 0 0 0 0 0 0 0 0 0 0 0 0 0 0 0 0 0 0 0 0 0 0 0 0 0 0
0 0 0 0 0 0 0 0 0 -0 -0 -0 -0 0 0 0 0 0 0 0 0 0 0 0 0 0 0 0 0 0 0 0 0 0 0 0 0 0 0 0 0 0 0 0 0 0 0 0 0
Wind_Speed
11 9 6 2 3 5 7 6 4 1 2 5 6 5 6 5 4 5 4 6 6 4 7 7 5 5 6 7 9 11 11 11 11 12 12 12 12 12 11 11 11 11 11 11 11 11 11 12 12
9 6 4 3 4 6 6 6 3 2 5 6 5 4 4 3 5 6 4 6 6 4 5 6 5 5 5 6 7 10 11 11 11 11 12 12 12 12 12 11 11 10 11 11 11 11 11 12 12
10 6 3 3 5 5 3 1 3 5 5 3 2 3 3 3 5 4 4 6 6 5 3 6 6 4 4 5 6 8 10 11 11 11 11 12 12 12 12 11 10 10 10 10 11 11 11 11 11
4 3 3 4 9 6 3 4 5 4 2 1 2 2 1 3 4 4 6 7 6 4 3 4 5 4 4 4 5 6 8 11 11 11 10 11 12 13 12 10 10 10 10 11 12 12 11 11 10
3 3 4 6 8 6 2 3 4 2 2 1 2 3 2 2 5 5 6 6 6 4 2 2 4 4 4 4 5 6 7 9 11 11 11 11 11 11 11 10 10 11 12 12 12 12 12 11 10
3 3 4 6 7 5 1 3 2 2 3 2 2 3 2 2 4 5 5 5 5 4 3 1 3 4 4 5 6 6 7 8 10 11 11 10 11 11 10 10 10 11 12 13 12 12 11 10 9
3 3 5 6 5 3 1 3 1 2 3 3 2 3 1 2 4 5 5 5 4 4 3 2 2 3 5 5 7 7 7 8 9 10 10 10 9 10 11 11 11 11 12 12 12 12 11 10 9
4 3 4 5 5 2 3 3 2 3 4 4 3 2 1 2 4 4 4 4 4 3 2 2 1 2 3 4 6 8 8 8 8 9 10 9 9 9 10 11 11 11 11 11 11 11 11 10 8
4 3 4 3 3 1 4 2 3 3 4 4 3 4 3 4 5 4 4 4 4 4 3 2 2 2 2 3 5 7 8 9 8 8 9 9 7 8 8 10 10 11 12 11 11 11 10 9 7
2 3 2 4 5 4 3 2 4 3 4 4 4 3 4 4 4 4 4 4 4 5 4 2 2 2 2 3 3 4 5 6 6 6 8 7 6 6 8 11 12 12 11 11 11 10 9 7 4
3 4 2 4 6 5 4 4 4 5 6 4 5 5 5 5 4 5 5 5 5 5 4 4 3 2 2 2 2 2 3 4 6 7 8 6 5 5 5 5 7 8 9 7 7 7 5 5 4
4 4 3 2 3 3 4 4 5 5 6 6 6 5 5 5 5 5 5 5 6 5 5 4 5 3 3 2 2 3 3 3 4 5 7 6 4 5 5 5 6 6 5 6 6 4 6 6 6
5 3 2 2 2 4 5 5 5 6 5 6 6 5 5 5 5 5 5 5 5 5 5 5 5 4 3 2 2 3 3 3 3 4 5 6 5 5 5 5 6 6 5 6 6 6 6 6 6
2 2 3 4 4 4 5 5 4 5 4 4 4 4 4 5 5 5 5 5 5 5 5 5 4 4 3 2 2 2 3 3 2 3 5 6 5 5 5 6 6 6 5 5 6 6 6 5 4
2 3 4 5 5 2 2 5 4 4 3 3 4 4 4 4 4 4 5 5 5 5 5 5 4 3 3 3 3 2 2 3 3 3 4 5 5 6 5 5 5 6 6 6 5 5 4 4 4
4 4 3 3 3 2 2 6 2 1 2 3 4 4 3 4 4 4 4 4 4 4 5 5 4 4 3 2 3 2 2 2 2 2 3 5 5 5 5 5 5 5 5 5 5 4 4 3 3
4 4 3 1 3 2 4 5 3 1 2 4 3 3 3 4 5 4 5 5 4 4 5 4 4 3 3 2 2 2 2 2 2 2 2 4 4 5 5 5 5 6 5 5 5 4 4 4 4
3 3 3 2 2 2 5 6 4 1 2 3 3 3 3 4 5 5 5 5 4 4 4 4 4 3 3 2 1 1 2 2 2 2 3 4 4 4 4 4 5 5 5 5 5 5 4 4 4
3 3 4 2 1 3 6 7 5 1 1 2 3 4 4 5 5 5 5 5 4 4 4 4 4 3 2 1 1 2 2 2 2 2 3 4 4 4 4 4 5 5 5 6 6 5 5 4 4
4 3 3 2 2 4 6 7 5 2 2 0 2 3 4 5 6 6 6 5 5 4 4 4 4 3 2 2 1 2 2 2 2 2 2 4 5 5 4 4 4 5 5 6 6 5 4 4 5
3 3 3 3 5 6 5 5 4 3 2 1 2 2 4 5 5 6 6 5 5 5 4 4 5 4 3 2 1 1 1 1 1 2 2 3 4 4 4 5 5 5 5 6 6 6 6 5 4
2 2 3 4 3 3 3 4 2 3 1 1 3 4 4 5 5 5 6 6 6 5 4 4 5 4 3 2 1 2 2 3 3 2 3 3 3 4 4 4 5 5 4 5 5 5 5 5 5
1 4 3 4 4 4 4 3 3 3 1 2 3 4 4 4 4 5 6 5 6 5 5 4 5 5 4 2 2 1 2 2 2 2 2 2 3 3 4 4 4 4 4 5 5 5 5 5 5
2 3 4 3 2 4 4 3 3 1 1 2 2 4 4 5 5 6 6 6 6 6 6 5 5 5 4 3 2 2 2 3 3 3 2 2 2 2 3 3 3 4 4 5 5 6 6 5 6
1 2 1 1 2 4 2 2 2 2 3 2 2 3 4 5 5 6 7 7 7 7 7 6 5 5 4 4 3 2 2 2 3 3 2 2 2 2 3 4 3 3 4 4 4 5 5 6 6
1 1 1 2 2 2 1 3 1 4 4 3 3 3 4 5 5 6 6 7 7 8 7 7 7 6 5 4 4 3 2 2 1 1 1 2 2 2 3 4 4 4 4 4 4 4 5 5 6
1 0 1 2 4 3 3 3 3 4 4 3 3 4 4 5 5 5 6 7 7 7 7 7 7 7 6 5 4 3 3 2 2 1 1 1 2 2 2 3 3 4 4 4 5 4 5 5 6
1 2 1 2 2 3 3 2 1 1 0 1 2 3 4 4 5 5 5 6 6 6 6 7 7 7 6 5 4 4 3 3 2 1 1 1 2 2 2 3 3 3 3 4 4 4 5 6 5
2 2 2 3 2 2 3 2 2 3 2 1 1 2 2 4 4 4 5 5 6 6 7 7 7 7 7 6 5 5 4 4 4 3 2 2 2 2 3 3 3 3 3 4 4 5 5 6 6
1 2 2 1 3 3 3 4 1 3 3 2 1 2 2 3 3 4 4 4 5 6 6 7 7 7 7 6 5 5 5 5 5 4 4 3 2 2 2 2 2 3 3 3 4 4 5 6 6
Wind_Direction
295 269 252 238 231 229 237 242 260 305 25 30 19 2 349 347 13 81 99 33 36 70 108 115 111 132 141 149 160 161 162 164 165 167 165 164 162 159 155 151 148 146 143 140 134 128 124 118 113
289 272 251 229 234 230 232 228 247 35 50 29 14 357 336 354 48 76 60 25 29 55 104 116 109 125 145 151 157 166 169 170 171 170 171 169 167 165 162 159 158 154 148 143 135 128 123 121 119
275 261 241 221 229 235 260 71 80 54 62 40 3 337 321 2 38 59 43 23 27 38 71 114 120 123 144 157 159 169 175 174 175 175 174 175 172 170 168 167 163 157 148 142 137 131 128 125 124
259 235 245 243 241 250 292 17 51 36 44 34 336 304 27 24 32 40 32 21 21 31 41 105 124 138 146 162 170 171 180 180 179 179 178 180 177 175 172 170 164 155 147 143 140 136 134 131 131
250 240 227 234 244 254 285 34 48 15 318 295 284 285 320 46 66 52 31 18 14 10 24 128 137 158 162 166 178 181 184 188 185 183 183 183 182 178 173 170 161 154 150 148 146 144 141 139 140
242 241 236 234 242 242 254 52 39 300 294 297 283 276 286 62 50 34 26 9 5 2 348 179 174 176 184 183 187 189 192 191 191 187 188 186 185 179 172 169 163 161 157 155 152 150 148 148 149
257 243 248 256 252 235 132 61 4 294 291 302 329 298 259 49 31 14 12 1 352 357 352 333 215 194 195 198 196 195 197 199 197 192 189 188 184 179 174 169 166 166 163 160 158 157 156 157 156
289 280 258 260 264 268 61 44 359 324 302 340 350 288 275 17 8 1 349 345 335 332 339 329 288 238 211 206 206 202 200 202 203 199 191 186 181 180 176 171 170 169 166 164 163 164 163 162 161
283 260 254 265 288 8 59 24 330 333 314 309 299 289 297 329 335 332 326 328 323 316 307 296 287 275 250 223 214 205 203 202 203 200 192 184 183 181 178 180 174 173 169 167 168 168 164 159 164
239 245 265 354 7 9 18 343 322 307 285 285 297 316 314 329 324 312 312 310 308 311 308 307 296 267 253 246 220 212 208 199 199 198 191 190 188 184 180 177 174 174 170 168 169 168 163 160 167
223 248 303 1 11 358 335 310 302 287 280 300 320 329 328 330 329 321 317 310 302 299 307 314 305 270 243 236 228 220 213 198 199 201 192 189 184 178 173 161 167 170 168 168 168 164 174 186 179
229 255 284 321 357 323 300 297 296 278 290 321 321 323 327 324 318 314 309 308 307 308 309 315 310 289 256 236 231 229 217 203 199 199 193 184 178 175 170 166 169 172 175 173 169 178 190 199 192
232 249 278 318 300 280 278 277 281 280 305 311 315 311 301 298 302 303 304 305 305 305 304 303 306 299 277 253 235 242 226 207 203 196 196 183 177 177 173 171 169 174 175 177 175 186 192 197 196
253 282 280 269 257 257 266 274 267 276 288 299 307 302 300 302 308 309 309 305 304 302 301 300 294 295 278 257 244 244 238 216 208 202 200 184 178 175 174 176 173 175 176 179 181 192 193 195 191
260 258 258 234 227 237 291 271 244 252 272 294 305 307 311 320 320 308 309 311 308 307 305 306 293 286 273 258 254 256 245 223 206 207 201 191 180 178 175 178 178 178 176 178 183 194 192 192 188
224 229 233 185 192 176 238 269 267 193 282 296 301 312 324 332 330 330 328 320 316 311 309 316 311 301 285 258 250 255 259 237 215 208 200 196 188 181 178 178 183 181 174 177 183 188 184 187 182
210 236 239 158 188 194 231 271 275 309 297 298 306 321 332 332 340 336 330 325 321 317 314 314 313 300 287 269 250 244 249 238 221 215 198 190 192 188 183 184 186 181 176 179 186 185 177 180 178
236 254 251 228 211 247 260 271 278 308 321 309 316 333 336 336 338 339 332 328 329 324 320 313 309 304 300 284 261 241 252 240 216 209 208 188 187 186 186 187 191 183 179 182 183 183 180 178 174
293 275 274 285 278 286 266 271 268 244 298 316 335 351 346 338 336 341 340 337 334 336 329 326 316 305 300 272 244 228 238 236 219 210 206 196 188 182 182 190 191 191 190 188 187 181 181 181 168
273 274 286 304 328 296 273 273 259 183 180 291 354 348 340 342 343 341 340 340 336 334 331 326 318 307 293 269 257 239 240 235 217 220 213 204 192 186 188 192 196 199 193 188 187 179 181 186 175
282 283 300 321 313 265 268 275 203 167 166 89 21 357 354 349 339 339 344 343 335 334 333 328 320 310 295 280 270 261 247 250 234 220 212 216 206 191 188 199 201 203 197 195 190 184 181 186 188
284 339 335 318 310 284 276 288 224 167 174 9 6 2 355 350 349 349 350 348 343 334 329 327 323 320 314 287 247 230 226 234 236 219 208 210 208 193 191 201 204 206 199 192 192 189 187 182 190
305 333 300 279 279 288 243 247 267 132 267 322 355 357 358 1 358 356 356 353 351 350 341 326 329 337 336 321 277 261 247 238 240 225 196 207 207 199 196 197 196 205 201 193 191 192 192 192 195
305 300 272 241 268 267 225 207 276 156 238 315 352 0 359 2 3 6 6 6 5 2 352 351 346 340 343 338 340 317 277 249 228 226 207 212 212 204 204 205 201 208 205 199 196 195 196 201 204
347 343 337 269 230 246 162 184 246 92 85 59 359 348 360 5 5 7 5 3 2 359 355 354 353 347 349 354 349 334 309 274 233 222 210 216 219 214 213 212 207 214 215 205 201 202 204 206 208
262 296 343 301 287 303 227 214 159 85 78 60 30 13 13 7 6 8 3 1 359 355 353 357 358 357 358 359 352 345 329 315 296 261 235 235 233 227 218 216 211 218 219 219 208 207 210 211 217
302 272 347 292 285 275 242 181 123 74 65 40 22 19 10 8 7 6 4 4 0 355 355 358 359 1 4 2 358 357 348 334 318 322 296 274 266 253 230 222 218 219 216 220 213 216 217 216 219
259 318 302 266 301 288 267 213 200 154 164 17 15 14 5 2 3 4 5 5 360 356 355 2 5 4 5 6 4 357 353 345 334 332 315 296 274 253 237 227 221 220 218 223 224 224 223 224 227
182 215 257 270 273 283 295 295 51 121 111 56 7 8 9 358 357 0 3 6 4 5 4 5 7 6 6 6 3 4 0 355 356 350 335 309 270 251 243 230 217 225 229 229 228 228 228 229 233
241 226 214 244 277 260 272 268 77 93 84 68 29 13 21 16 4 2 5 9 10 7 4 5 6 4 2 2 2 1 359 0 356 348 333 323 301 276 258 250 229 240 244 241 238 238 238 235 236